Weather History for Buffalo, WY

Change the Weather History Date:

Friday, April 19, 2013

  Actual Average Record
Temperature  
Mean Temperature 39 °F 44 °F  
Max Temperature 49 °F 55 °F 73 °F (2008)
Min Temperature 29 °F 34 °F 23 °F (2011)
Degree Days  
Heating Degree Days 26 21  
Month to date heating degree days 558 448  
Since 1 July heating degree days 6442 6638  
Cooling Degree Days 0 0  
Month to date cooling degree days 0 0  
Year to date cooling degree days 0 0  
Moisture  
Dew Point 24 °F    
Average Humidity 55    
Maximum Humidity 72    
Minimum Humidity 38    
Precipitation  
Precipitation 0.00 in 0.04 in 0.28 in (2000)
Month to date precipitation 0.36 0.62  
Year to date precipitation 1.05 2.31  
Sea Level Pressure  
Sea Level Pressure 29.93 in    
Wind  
Wind Speed 5 mph (North)    
Max Wind Speed 28 mph    
Max Gust Speed 36 mph    
Visibility 10 miles    
Events      
T = Trace of Precipitation, MM = Missing Value Source: NWS Daily Summary

Daily Weather History Graph

Daily Weather History Graph

Search for Another Location

Airport:

Trip Planner

Search our weather history database for the weather conditions in past years. The results will help you decide how hot, cold, wet, or windy it might be!

Date:

Astronomy

Apr. 19, 2013 Rise Set
Actual Time 6:15 AM MDT 7:56 PM MDT
Civil Twilight 5:45 AM MDT 8:27 PM MDT
Nautical Twilight 5:07 AM MDT 9:04 PM MDT
Astronomical Twilight 4:27 AM MDT 9:45 PM MDT
Moon 1:30 PM MDT (4/19) 2:47 AM MDT (4/19)
Length of Visible Light 14h 42m
Length of Day
13h 40m
Waxing Gibbous, 62% of the Moon is Illuminated
Apr 19
Waxing Gibbous
Apr 25
Full
May 2
Last Quarter
May 9
New
May 17
First Quarter

Hourly Weather History & Observations

Time (MDT) Temp. Windchill Dew Point Humidity Pressure Visibility Wind Dir Wind Speed Gust Speed Precip Events Conditions
12:53 AM 39.0 °F 27.8 °F 23.0 °F 53% 30.06 in 9.0 mi NNW 26.5 mph 39.1 mph N/A   Mostly Cloudy
1:53 AM 34.0 °F 27.2 °F 25.0 °F 70% 30.05 in 10.0 mi North 8.1 mph - N/A   Mostly Cloudy
2:53 AM 33.1 °F 25.5 °F 25.0 °F 72% 30.04 in 10.0 mi NNW 9.2 mph - N/A   Clear
3:53 AM 30.0 °F 26.5 °F 23.0 °F 75% 30.03 in 10.0 mi West 3.5 mph - N/A   Clear
4:53 AM 33.1 °F - 19.0 °F 56% 30.02 in 10.0 mi Calm Calm - N/A   Clear
5:53 AM 32.0 °F 27.5 °F 21.9 °F 66% 30.01 in 10.0 mi ENE 4.6 mph - N/A   Overcast
6:53 AM 34.0 °F 31.0 °F 21.0 °F 59% 30.00 in 10.0 mi SSW 3.5 mph - N/A   Overcast
7:53 AM 36.0 °F - 23.0 °F 59% 30.01 in 10.0 mi Calm Calm - N/A   Overcast
8:53 AM 39.0 °F 36.8 °F 21.9 °F 50% 30.00 in 10.0 mi NNW 3.5 mph - N/A   Overcast
9:53 AM 41.0 °F 36.4 °F 23.0 °F 49% 29.99 in 10.0 mi NNW 6.9 mph - N/A   Overcast
10:53 AM 44.1 °F 36.8 °F 24.1 °F 45% 29.98 in 10.0 mi NNW 16.1 mph 25.3 mph N/A   Overcast
11:53 AM 45.0 °F 39.7 °F 21.9 °F 40% 29.95 in 10.0 mi NNE 10.4 mph 23.0 mph N/A   Overcast
12:53 PM 46.0 °F 43.1 °F 23.0 °F 40% 29.91 in 10.0 mi North 5.8 mph - N/A   Overcast
1:53 PM 48.0 °F - 24.1 °F 39% 29.91 in 10.0 mi North 6.9 mph - N/A   Overcast
2:53 PM 48.0 °F - 24.1 °F 39% 29.88 in 10.0 mi Calm Calm - N/A   Overcast
3:53 PM 48.0 °F - 25.0 °F 41% 29.88 in 10.0 mi Calm Calm - N/A   Mostly Cloudy
4:53 PM 48.0 °F - 24.1 °F 39% 29.85 in 10.0 mi ESE 3.5 mph - N/A   Partly Cloudy
5:53 PM 48.9 °F - 24.1 °F 38% 29.84 in 10.0 mi SE 4.6 mph - N/A   Overcast
6:53 PM 46.9 °F - 24.1 °F 41% 29.83 in 10.0 mi ESE 3.5 mph - N/A   Overcast
7:53 PM 43.0 °F 41.3 °F 26.1 °F 51% 29.83 in 10.0 mi ESE 3.5 mph - N/A   Partly Cloudy
8:53 PM 42.1 °F 40.2 °F 26.1 °F 53% 29.84 in 10.0 mi South 3.5 mph - N/A   Mostly Cloudy
9:53 PM 41.0 °F 38.0 °F 26.1 °F 55% 29.83 in 10.0 mi South 4.6 mph - N/A   Clear
10:53 PM 39.9 °F - 26.1 °F 58% 29.81 in 10.0 mi Calm Calm - N/A   Clear
11:53 PM 35.1 °F 28.6 °F 25.0 °F 67% 29.82 in 10.0 mi West 8.1 mph - N/A   Partly Cloudy